Date String (YYYY-MM-DD hh:mm:ss) UTC,Instrument flags,absolute air pressure of the measurement (hPa),sample flow rate (lpm),inlet stack bypass flow (lpm),air temperature of the measurement (°C),ambient temperature measured by the external sensor (°C),aerosol sample conditioner tube jacket temperature (°C),OPC LED temperature (°C),internal box temperature (°C),relative humidity of the measurement (%),span deviation,mass concentration of particles derived from Lorenz-Mie calculation of OPC scattering (μg/m³),mass concentration of particles derived from Lorenz-Mie calculation of OPC scattering (μg/m³),mass concentration of particles derived from Lorenz-Mie calculation of OPC scattering (μg/m³)
DateTimeUTC,F1_M11,P_M11,Q1_M11,Q2_M11,T1_M11,T2_M11,T3_M11,T4_M11,T5_M11,U1_M11,ZSPAN_M11,X2_M11,X0_M11,X1_M11
2024-06-02 09:00:00,SystemResetWarning,0826.2,5.00,000.00,030.8,030.0,000.0,039.3,032.5,017.9,0000.0,0004.76,0014.51,0003.79
2024-06-02 09:01:00,SystemResetWarning,0826.2,5.00,000.00,030.8,030.0,000.0,039.3,032.5,017.7,0000.0,0004.81,0014.47,0003.80
2024-06-02 09:02:00,SystemResetWarning,0826.2,5.00,000.00,030.8,030.0,000.0,039.3,032.5,017.6,0000.0,0004.84,0014.77,0003.81
2024-06-02 09:03:00,SystemResetWarning,0826.2,5.00,000.00,030.8,030.0,000.0,039.3,032.5,017.6,0000.0,0004.78,0014.44,0003.81
2024-06-02 09:04:00,SystemResetWarning,0826.2,5.00,000.00,030.8,030.0,000.0,039.3,032.5,017.6,0000.0,0004.74,0014.30,0003.82
2024-06-02 09:05:00,SystemResetWarning,0826.2,5.00,000.00,030.8,030.0,000.0,039.3,032.5,017.5,0000.0,0004.75,0014.26,0003.81
2024-06-02 09:06:00,SystemResetWarning,0826.2,5.00,000.00,030.8,030.0,000.0,039.3,032.5,017.5,0000.0,0004.78,0014.81,0003.82
2024-06-02 09:07:00,SystemResetWarning,0826.2,5.00,000.00,030.8,030.0,000.0,039.3,032.5,017.5,0000.0,0004.78,0013.36,0003.82
2024-06-02 09:08:00,SystemResetWarning,0826.2,5.00,000.00,030.8,030.0,000.0,039.3,032.5,017.5,0000.0,0004.76,0013.87,0003.81
2024-06-02 09:09:00,SystemResetWarning,0826.2,5.00,000.00,030.8,030.0,000.0,039.3,032.5,017.4,0000.0,0004.79,0014.51,0003.82
2024-06-02 09:10:00,SystemResetWarning,0826.2,5.00,000.00,030.8,030.0,000.0,039.3,032.5,017.4,0000.0,0004.82,0015.11,0003.82
2024-06-02 09:11:00,SystemResetWarning,0826.2,5.00,000.00,030.8,030.0,000.0,039.3,032.5,017.4,0000.0,0004.81,0015.14,0003.83
2024-06-02 09:12:00,SystemResetWarning,0826.2,5.00,000.00,030.8,030.0,000.0,039.3,032.5,017.4,0000.0,0004.81,0015.15,0003.84
2024-06-02 09:13:00,SystemResetWarning,0826.2,5.00,000.00,030.8,030.0,000.0,039.3,032.5,017.5,0000.0,0004.79,0014.92,0003.85
2024-06-02 09:14:00,SystemResetWarning,0826.2,5.00,000.00,030.8,030.0,000.0,039.3,032.5,017.4,0000.0,0004.81,0015.51,0003.85
2024-06-02 09:15:00,SystemResetWarning,0826.2,5.00,000.00,030.8,030.0,000.0,039.3,032.5,017.4,0000.0,0004.80,0015.70,0003.86
2024-06-02 09:16:00,SystemResetWarning,0826.2,5.00,000.00,030.8,030.0,000.0,039.3,032.5,017.4,0000.0,0004.83,0015.73,0003.88
2024-06-02 09:17:00,SystemResetWarning,0826.1,5.00,000.00,030.8,030.0,000.0,039.3,032.5,017.4,0000.0,0004.82,0014.74,0003.89
2024-06-02 09:18:00,SystemResetWarning,0826.1,4.99,000.00,030.8,030.0,000.0,039.3,032.5,017.3,0000.0,0004.83,0014.53,0003.92
2024-06-02 09:19:00,SystemResetWarning,0826.0,5.00,000.00,030.8,030.0,000.0,039.3,032.5,017.3,0000.0,0004.89,0014.51,0003.93
2024-06-02 09:20:00,SystemResetWarning,0826.0,5.00,000.00,030.8,030.0,000.0,039.3,032.5,017.2,0000.0,0004.90,0014.70,0003.93
2024-06-02 09:21:00,SystemResetWarning,0826.1,4.99,000.00,030.8,030.0,000.0,039.3,032.5,017.2,0000.0,0004.88,0013.96,0003.93
2024-06-02 09:22:00,SystemResetWarning,0826.1,4.99,000.00,030.8,030.0,000.0,039.3,032.5,017.3,0000.0,0004.84,0013.46,0003.93
2024-06-02 09:23:00,SystemResetWarning,0826.2,5.00,000.00,030.8,030.0,000.0,039.3,032.5,017.2,0000.0,0004.79,0013.34,0003.93
2024-06-02 09:24:00,SystemResetWarning,0826.2,5.01,000.00,030.8,030.0,000.0,039.3,032.5,017.3,0000.0,0004.79,0012.91,0003.93
2024-06-02 09:25:00,SystemResetWarning,0826.2,4.99,000.00,030.8,029.9,000.0,039.3,032.5,017.1,0000.0,0004.79,0012.48,0003.94
2024-06-02 09:26:00,SystemResetWarning,0826.2,4.99,000.00,030.8,029.9,000.0,039.3,032.5,017.1,0000.0,0004.79,0012.02,0003.95
2024-06-02 09:27:00,SystemResetWarning,0826.2,5.00,000.00,030.8,029.9,000.0,039.3,032.5,017.2,0000.0,0004.77,0012.09,0003.97
2024-06-02 09:28:00,SystemResetWarning,0826.2,5.01,000.00,030.8,029.9,000.0,039.3,032.5,017.1,0000.0,0004.82,0012.50,0003.99
2024-06-02 09:29:00,SystemResetWarning,0826.2,5.00,000.00,030.8,029.9,000.0,039.3,032.4,017.2,0000.0,0004.82,0013.62,0003.98
2024-06-02 09:30:00,SystemResetWarning,0826.1,5.00,000.00,030.7,029.9,000.0,039.3,032.4,017.1,0000.0,0004.76,0013.00,0003.98
2024-06-02 09:31:00,SystemResetWarning,0826.2,5.00,000.00,030.7,029.9,000.0,039.3,032.5,017.1,0000.0,0004.70,0011.72,0003.99
2024-06-02 09:32:00,SystemResetWarning,0826.2,5.00,000.00,030.7,029.9,000.0,039.3,032.4,017.1,0000.0,0004.75,0012.19,0004.02
2024-06-02 09:33:00,SystemResetWarning,0826.2,5.00,000.00,030.7,029.9,000.0,039.3,032.4,017.1,0000.0,0004.78,0012.34,0004.04
2024-06-02 09:34:00,SystemResetWarning,0826.2,5.00,000.00,030.7,029.8,000.0,039.3,032.4,017.2,0000.0,0004.84,0012.44,0004.06
2024-06-02 09:35:00,SystemResetWarning,0826.2,5.01,000.00,030.7,029.8,000.0,039.3,032.4,017.2,0000.0,0004.87,0013.31,0004.07
2024-06-02 09:36:00,SystemResetWarning,0826.2,5.01,000.00,030.7,029.8,000.0,039.3,032.4,017.2,0000.0,0004.87,0014.10,0004.09
2024-06-02 09:37:00,SystemResetWarning,0826.2,4.98,000.00,030.7,029.8,000.0,039.3,032.4,017.2,0000.0,0004.88,0014.48,0004.10
2024-06-02 09:38:00,SystemResetWarning,0826.2,5.01,000.00,030.7,029.8,000.0,039.3,032.4,017.2,0000.0,0004.87,0015.16,0004.11
2024-06-02 09:39:00,SystemResetWarning,0826.2,5.01,000.00,030.7,029.8,000.0,039.3,032.4,017.2,0000.0,0004.87,0014.99,0004.12
2024-06-02 09:40:00,SystemResetWarning,0826.2,5.00,000.00,030.7,029.8,000.0,039.3,032.4,017.3,0000.0,0004.90,0013.88,0004.14
2024-06-02 09:41:00,SystemResetWarning,0826.2,4.99,000.00,030.7,029.8,000.0,039.3,032.4,017.3,0000.0,0004.95,0014.65,0004.16
2024-06-02 09:42:00,SystemResetWarning,0826.2,4.99,000.00,030.6,029.7,000.0,039.3,032.3,017.4,0000.0,0005.01,0015.15,0004.18
2024-06-02 09:43:00,SystemResetWarning,0826.2,4.99,000.00,030.6,029.7,000.0,039.3,032.3,017.5,0000.0,0004.98,0014.56,0004.19
2024-06-02 09:44:00,SystemResetWarning,0826.1,5.00,000.00,030.6,029.7,000.0,039.2,032.3,017.6,0000.0,0004.99,0014.31,0004.20
2024-06-02 09:45:00,SystemResetWarning,0826.1,5.01,000.00,030.6,029.7,000.0,039.2,032.3,017.6,0000.0,0004.98,0014.47,0004.20
2024-06-02 09:46:00,SystemResetWarning,0826.0,5.01,000.00,030.6,029.6,000.0,039.2,032.3,017.7,0000.0,0005.00,0014.56,0004.21
2024-06-02 09:47:00,SystemResetWarning,0826.0,5.00,000.00,030.6,029.6,000.0,039.2,032.2,017.7,0000.0,0005.01,0014.24,0004.23
2024-06-02 09:48:00,SystemResetWarning,0826.0,5.00,000.00,030.5,029.6,000.0,039.2,032.2,017.7,0000.0,0005.05,0014.16,0004.24
2024-06-02 09:49:00,SystemResetWarning,0826.0,5.00,000.00,030.5,029.6,000.0,039.2,032.2,017.7,0000.0,0005.08,0013.32,0004.25
2024-06-02 09:50:00,SystemResetWarning,0826.0,5.00,000.00,030.5,029.6,000.0,039.2,032.2,017.6,0000.0,0005.06,0013.32,0004.24
2024-06-02 09:51:00,SystemResetWarning,0826.0,5.00,000.00,030.5,029.6,000.0,039.2,032.2,017.7,0000.0,0005.02,0013.70,0004.23
2024-06-02 09:52:00,SystemResetWarning,0826.0,5.00,000.00,030.5,029.6,000.0,039.2,032.2,017.7,0000.0,0005.04,0013.63,0004.23
2024-06-02 09:53:00,SystemResetWarning,0826.0,5.00,000.00,030.5,029.6,000.0,039.2,032.2,017.8,0000.0,0005.03,0013.18,0004.24
2024-06-02 09:54:00,SystemResetWarning,0826.1,5.00,000.00,030.5,029.6,000.0,039.1,032.2,017.8,0000.0,0005.03,0013.69,0004.25
2024-06-02 09:55:00,SystemResetWarning,0826.2,5.00,000.00,030.5,029.6,000.0,039.1,032.2,017.8,0000.0,0005.03,0014.97,0004.24
2024-06-02 09:56:00,SystemResetWarning,0826.2,4.99,000.00,030.5,029.5,000.0,039.1,032.2,017.9,0000.0,0005.07,0015.44,0004.25
2024-06-02 09:57:00,SystemResetWarning,0826.2,5.00,000.00,030.5,029.5,000.0,039.1,032.1,017.9,0000.0,0005.04,0014.86,0004.25
2024-06-02 09:58:00,SystemResetWarning,0826.2,5.00,000.00,030.4,029.5,000.0,039.1,032.1,018.0,0000.0,0005.04,0014.21,0004.24
2024-06-02 09:59:00,SystemResetWarning,0826.2,5.00,000.00,030.4,029.5,000.0,039.1,032.1,018.0,0000.0,0005.05,0015.03,0004.24
